Regional Weather Roundup
Issued by NWS

Home | Current Version | Previous Version | Text Only | Print | Product List | Glossary On
Versions: 1 2 3 4 5 6 7 8 9 10 11 12 13 14 15 16 17 18 19 20 21 22 23 24 25 26 27 28 29 30 31 32 33 34 35 36 37 38 39 40 41 42 43 44 45 46 47 48 49 50
000
ASUS42 KTBW 031117
RWRFL
FLORIDA REGIONAL WEATHER ROUNDUP
NATIONAL WEATHER SERVICE TAMPA BAY RUSKIN FL
700 AM EDT SUN MAY 03 2015

NOTE: "FAIR" INDICATES FEW OR NO CLOUDS BELOW 12,000 FEET WITH NO
SIGNIFICANT WEATHER AND/OR OBSTRUCTIONS TO VISIBILITY.


FLZ001>010-012>015-112-114-115-031200-
PANHANDLE FLORIDA

CITY           SKY/WX    TMP DP  RH WIND       PRES   REMARKS
PENSACOLA      CLEAR     58  56  93 N5        30.09R
PENSACOLA NAS  CLEAR     52  51  97 CALM      30.09R
MILTON NAS     CLEAR     53  52  96 MISG      30.10R
CRESTVIEW      CLEAR     47  46  97 CALM      30.12R
DUKE FIELD     FAIR      48  46  92 CALM      30.10R
VALPARAISO     PTCLDY    53  50  89 N1        30.09R
MARY ESTHER    CLEAR     53  49  89 NW2       30.08R
PANAMA CITY    FAIR      54  51  90 CALM      30.09R
TYNDALL AFB    CLEAR     58  56  91 NE3       30.09R
APALACHICOLA   CLEAR     60  53  77 NE7       30.10R

STATION/POSITION SKY/WX   TEMP    WIND        PRES    WAVE   SWELL
                          AIR SEA DIR/SP/G            HT/PER HT/PER
                          (F)     (DEG/KT/KT) (MB)    (FT/S) (FT/S)
30.1N   87.6W              72 73   60/  2/  2 1018.3R   1
29.2N   88.2W              72 74  160/  4/  6 1018.7R   1
28.8N   86.0W              72 74   90/ 12/ 14 1018.9R   1/ 4
PANAMA CITY BEAC           60 73   30/  6/  7 1018.4R
CAPE SAN BLAS    NOT AVBL
TOWER C                    71     110/ 17/ 19 1019.0R
28.5N   84.5W              73 74  130/ 17/ 19 1018.5R   3/ 4

$$
FLZ011-016>038-118-127-128-134-139-239-031200-
NORTH FLORIDA

CITY           SKY/WX    TMP DP  RH WIND       PRES   REMARKS
MARIANNA       CLEAR     53  52  96 CALM      30.12R
TALLAHASSEE    PTCLDY    52  48  86 CALM      30.12R
PERRY          CLEAR     53  53  99 CALM      30.13R
CROSS CITY       N/A     56  53  90 CALM      30.13R
LAKE CITY      FAIR      52  50  93 CALM      30.14R
GAINESVILLE    CLEAR     51  49  92 CALM      30.13R
MAYPORT NAS    CLEAR     61  56  83 W5        30.13R
JACKSONVILLE   PTCLDY    51  50  96 CALM      30.13R
JAX NAS        CLEAR     60  53  77 W3        30.14R
JAX CRAIG      CLEAR     54  50  86 CALM      30.13R
JAX CECIL      CLEAR     46  45  93 CALM      30.14R
FERNANDINA BEA FAIR      61  55  82 W3        30.12R
ST AUGUSTINE   CLEAR     56  53  90 CALM      30.14R

STATION/POSITION SKY/WX   TEMP    WIND        PRES    WAVE   SWELL
                          AIR SEA DIR/SP/G            HT/PER HT/PER
                          (F)     (DEG/KT/KT) (MB)    (FT/S) (FT/S)
SHELL POINT                62      40/  4/  7   N/A
KEATON BEACH               59      90/  3/  3 1020.1R
CEDAR KEY                  66      80/  7/  9 1020.3R
FERNANDINA                 62 72  200/  1/  1 1019.1R
30.7N   81.3W                 70                N/A     3/14   2/14
MAYPORT                    65 72  250/  2/  2 1019.8R
31.4N   80.9W              69 69  230/  8/ 10 1020.3R   3/13   3/13
ST AUGUSTINE               71 70  100/  9/  9 1020.9R

$$
FLZ040-043>046-052-053-057-058-063-144-031200-
INTERIOR CENTRAL FLORIDA

CITY           SKY/WX    TMP DP  RH WIND       PRES   REMARKS
OCALA          CLEAR     52  48  87 CALM      30.13R
THE VILLAGES     N/A     55  55 100 CALM      30.03R
LEESBURG       CLEAR     60  56  86 CALM      30.13R
SANFORD        CLEAR     57  53  86 CALM      30.12R
ORLANDO EXEC   CLEAR     61  55  81 CALM      30.12R
ORLANDO INTL   PTCLDY    63  56  78 CALM      30.12R
KISSIMMEE      PTCLDY    61  57  88 CALM      30.12
WINTER HAVEN   CLEAR     62  56  80 NE5       30.12R
BARTOW         FAIR      63  57  82 NE3       30.12R
OKEECHOBEE     MOCLDY    59  55  88 CALM      30.10R

$$
FLZ041-047-054-059-064-141-147-031200-
EAST CENTRAL FLORIDA

CITY           SKY/WX    TMP DP  RH WIND       PRES   REMARKS
ORMOND BEACH   CLEAR     54  52  94 CALM      30.12
DAYTONA BEACH  PTCLDY    56  54  93 CALM      30.13R
DELAND           N/A     54  50  87 CALM      30.14R
JFK SPACE CTR  CLEAR     54  51  91 NW2       30.10R
TITUSVILLE     PTCLDY    54  54 100 CALM      30.12
CAPE CANAVERAL CLEAR     56  49  77 N2        30.10R
PATRICK AFB    CLEAR     70  49  47 N7        30.10R
MELBOURNE      PTCLDY    67  48  50 N6        30.10R
VERO BEACH     CLEAR     59  53  80 N3        30.10R
FT PIERCE      CLEAR     70  53  54 NE3       30.09R
STUART         MOCLDY    72  55  56 E12       30.09S

STATION/POSITION SKY/WX   TEMP    WIND        PRES    WAVE   SWELL
                          AIR SEA DIR/SP/G            HT/PER HT/PER
                          (F)     (DEG/KT/KT) (MB)    (FT/S) (FT/S)
28.5N   80.2W              73 76   60/  6/  8 1019.1R
28.9N   78.5W              72 78   50/ 12/ 16 1019.5R
TRIDENT PIER               62 77   10/  3/  3 1019.5R
28.4N   80.5W                 76                N/A     3/13   2/13
27.5N   80.2W                 78                N/A     5/10   3/12

$$
FLZ050-056-061-142-242-148-248-149-249-151-251-155-255-
160-260-031200-
WEST CENTRAL FLORIDA

CITY           SKY/WX    TMP DP  RH WIND       PRES   REMARKS
CRYSTAL RIVER  FAIR      55  54  94 CALM      30.12R
INVERNESS        N/A     54   9  16 CALM      30.13R HAZE
BROOKSVILLE    CLEAR     55  53  93 CALM      30.12R
CLEARWATER     CLEAR     67  59  75 E8        30.10R
TAMPA INTL     PTCLDY    66  56  70 CALM      30.11R
TAMPA EXEC     CLEAR     59  55  88 CALM      30.12R
PLANT CITY     CLEAR     59  59 100 E3        30.13R
MACDILL AFB    CLEAR     64  61  90 E10       30.10R
PETER O KNIGHT CLEAR     66  61  82 E6        30.11R
ST PETERSBURG  CLEAR     70  61  73 E17       30.09R
SARASOTA       CLEAR     62  58  86 E8        30.08R
VENICE         FAIR      61  57  88 NE9       30.10R

STATION/POSITION SKY/WX   TEMP    WIND        PRES    WAVE   SWELL
                          AIR SEA DIR/SP/G            HT/PER HT/PER
                          (F)     (DEG/KT/KT) (MB)    (FT/S) (FT/S)
CEDAR KEY                  66      80/  7/  9 1020.3R
28.5N   84.5W              73 74  130/ 17/ 19 1018.5R   3/ 4
27.3N   84.2W                 76                N/A     4/ 5
CLEARWATER BEACH           68 76  100/  7/ 12 1019.0R
MIDDLE TAMPA BAY           67      90/ 13/ 16 1018.9R
VENICE                     62 78   50/  7/  9 1018.7R

$$
FLZ066-069-070-075>078-162-262-165-265-031200-
SOUTHWEST FLORIDA AND KEYS

CITY           SKY/WX    TMP DP  RH WIND       PRES   REMARKS
PUNTA GORDA    CLEAR     56  55  97 NE9       30.11R
FT MYERS       CLEAR     62  59  90 E5        30.07R
SOUTHWEST INTL CLEAR     60  58  92 NE7       30.08R
NAPLES         CLEAR     64  58  80 E6        30.07R
MARCO ISLAND   SUNNY     63  55  77 NE5       30.07R
IMMOKALEE      SUNNY    N/A N/A N/A CALM      30.08S
MARATHON       CLEAR     75  59  57 NE16G23   30.03R
KEY WEST NAS   PTCLDY    74  61  63 NE14      30.03R
KEY WEST INTL  PTCLDY    74  62  66 NE14G22   30.03R

STATION/POSITION SKY/WX   TEMP    WIND        PRES    WAVE   SWELL
                          AIR SEA DIR/SP/G            HT/PER HT/PER
                          (F)     (DEG/KT/KT) (MB)    (FT/S) (FT/S)
VENICE                     62 78   50/  7/  9 1018.7R
NAPLES                     67 77   60/  4/  6 1017.7R
26.0N   85.6W              74 80   50/ 10/ 14 1017.0R   2/ 5   2/ 5
DRY TORTUGAS               77     100/ 23/ 24 1015.3S
NW FL BAY                  74      70/ 15/ 18 1016.9
SAND KEY                   76      70/ 23/ 27 1016.2R
SOMBRERO KEY               75      60/ 21/ 23 1016.9R
LONG KEY                   75 76   60/ 17/ 20 1017.9R
MOLASSES REEF              75 78   60/ 19/ 22 1016.9R

$$
FLZ067-068-071>074-168-172>174-031200-
SOUTHEAST FLORIDA

CITY           SKY/WX    TMP DP  RH WIND       PRES   REMARKS
W PALM BEACH   PTCLDY    73  56  54 E12       30.08R
FT LAUDER-EXEC CLEAR     72  55  55 NE7       30.06R
FT LAUDERDALE  PTCLDY    73  56  54 NE8       30.06R
POMPANO BEACH  PTCLDY    73  53  49 E14       30.07R
PEMBROKE PINES PTCLDY    72  57  59 NE9       30.08R
OPA LOCKA      MOCLDY    73  58  59 E12       30.06R
MIAMI          PTCLDY    73  57  57 NE10      30.06R
WEST KENDALL   CLEAR     66  57  72 N5        30.06R
HOMESTEAD      CLEAR     72  57  58 NE10      30.05R

STATION/POSITION SKY/WX   TEMP    WIND        PRES    WAVE   SWELL
                          AIR SEA DIR/SP/G            HT/PER HT/PER
                          (F)     (DEG/KT/KT) (MB)    (FT/S) (FT/S)
PORT EVERGLADES            75      60/ 15/ 19 1017.9R
VIRGINIA KEY               75 78   70/ 13/ 18 1016.7R
LAKE WORTH                 74 78   70/ 11/ 13 1017.6R
SETTLEMENT POINT           73      60/ 13/ 14 1019.4R

$$



USA.gov is the U.S. government's official web portal to all federal, state and local government web resources and services.